040418 J78  0.3+  0.1+    040519 A46  0.4-  0.3-    040727 415  0.4+  0.1+  

040418 J78  0.2+  0.0     040519 A46  0.2-  0.3-    040727 415  0.1+  0.4+  

040418 J78  0.1+  0.5+    040519 A46  0.3-  0.2-    040729 442 (3.2-  6.4+) 

040418 J78  0.1+  0.6+    040519 A46  0.3-  0.1-    040813 360  0.1-  0.1-  

040419 785  0.8+  1.3-    040519 A41  0.4-  0.8-    040813 360  0.2-  0.1-  

040419 785  0.8-  1.2+    040520 A41  0.6-  0.4-    040920 844  0.6-  0.2+  

040419 442  0.9+  0.9+    040520 A41  0.3-  0.7-    040920 844  1.0+  0.1+  

040419 213  0.3-  0.2-    040520 945  0.1+  0.0     040920 844  1.1+  0.6+  

040419 213  0.3-  0.4-    040520 945  0.2+  0.0                             



NAKANO

         **** Don't distribute anyone except personal use only ****

                (C) Copyright 2004 OAA/ComputingSection

write mail from CFAD0::NAKANO on 2004-10-04 01:08:29(JST).

 







    P/2004 F1 (NEAT)                                                      

Epoch 2003 Oct. 8.0 TT = JDT 2452920.5  

T 2003 Oct. 19.78706 TT                                 Nakano

q   2.4507239            (2000.0)            P               Q

n   0.10433607     Peri.   26.37012     -0.72564331     -0.62356267

a   4.4686850      Node   111.91118     +0.56283394     -0.78109839

e   0.4515783      Incl.   18.27201     +0.39580265     -0.03247930

P   9.45 (+/- 0.06 day)

From 59 observations 2003 Dec. 1-2004 Apr. 21, mean residual 0".56.



NAKANO

         **** Don't distribute anyone except personal use only ****

                (C) Copyright 2004 OAA/ComputingSection

write mail from CFAD0::NAKANO on 2004-06-02 06:08:27(JST).

 

   P/2004 F1 (NEAT)                                                      

Epoch 2003 Oct. 8.0 TT = JDT 2452920.5  

T 2003 Oct. 19.78791 TT                                 Nakano

q   2.4507220            (2000.0)            P               Q

n   0.10433869     Peri.   26.37057     -0.72564586     -0.62355990

a   4.4686100      Node   111.91097     +0.56283036     -0.78110047

e   0.4515695      Incl.   18.27195     +0.39580308     -0.03248232

P   9.45 (+/- 0.06 day)

From 57 observations 2003 Dec. 1-2004 Apr. 20, mean residual 0".55.





NAKANO

         **** Don't distribute anyone except personal use only ****

                (C) Copyright 2004 OAA/ComputingSection

write mail from CFAD0::NAKANO on 2004-04-24 06:00:27(JST).

 



◎P/2004 F1の軌道と予報位置です



  久万の中村彰正氏から3月20日の観測が報告されました.氏の CCD全光度は

18.8等でした.最近,暗い彗星の発見が多いためか,中村氏の独壇場ですね.



    P/2004 F1 (NEAT)                                                      

T 2003 Oct. 20.18203 TT                                 Nakano

q   2.4505265            (2000.0)            P               Q

n   0.10477387     Peri.   26.56064     -0.72672983     -0.62236290

a   4.4562279      Node   111.82331     +0.56130092     -0.78200234

e   0.4500895      Incl.   18.25107     +0.39598615     -0.03371595

P   9.41 (+/- 1.23 day)

From 34 observations 2004 Feb. 16-Mar. 20.

 

Date/        TT  R.A.(2000) Decl.     Delta   r     Daily motion  Mag.  Moon Age

              h    h  m       。  ,                      ,  / PA 。  m1      。

2004 Mar. 20 14  12 54.79  +23 26.4   1.761  2.687    10.5 / 307  18.5  156  .00

          21 14  12 54.18  +23 32.8   1.764  2.690    10.5 / 306  18.5  155  .00

          22 14  12 53.57  +23 38.9   1.766  2.693    10.4 / 305  18.5  149  .03

          23 14  12 52.94  +23 44.8   1.769  2.696    10.3 / 303  18.5  140  .07

          24 14  12 52.31  +23 50.5   1.772  2.699    10.2 / 302  18.6  129  .13

          25 14  12 51.68  +23 55.8   1.776  2.702    10.1 / 300  18.6  119  .20

          26 14  12 51.04  +24 00.9   1.779  2.705    10.0 / 299  18.6  108  .28

          27 14  12 50.40  +24 05.8   1.783  2.708     9.9 / 297  18.6   97  .37

          28 14  12 49.76  +24 10.3   1.787  2.711     9.8 / 296  18.6   86  .46

          29 14  12 49.11  +24 14.6   1.792  2.714     9.7 / 294  18.6   75  .56

          30 14  12 48.47  +24 18.6   1.796  2.717     9.5 / 293  18.6   64  .65

          31 14  12 47.83  +24 22.3   1.801  2.720     9.4 / 291  18.6   53  .74

     Apr.  1 14  12 47.19  +24 25.7   1.806  2.723     9.3 / 290  18.6   42  .83

           2 14  12 46.55  +24 28.8   1.812  2.726     9.1 / 288  18.6   32  .90

           3 14  12 45.91  +24 31.7   1.817  2.729     9.0 / 286  18.7   25  .95

           4 14  12 45.28  +24 34.2   1.823  2.732     8.8 / 285  18.7   24  .99

           5 14  12 44.66  +24 36.5   1.829  2.735     8.7 / 283  18.7   30 1.00

           6 14  12 44.04  +24 38.4   1.835  2.738     8.5 / 281  18.7   41  .98

           7 14  12 43.43  +24 40.1   1.842  2.741     8.3 / 279  18.7   53  .94

           8 14  12 42.83  +24 41.4   1.848  2.744     8.2 / 278  18.7   66  .87

           9 14  12 42.23  +24 42.5   1.855  2.747     8.0 / 276  18.7   79  .78

          10 14  12 41.65  +24 43.3   1.862  2.750     7.9 / 274  18.7   93  .68

          11 14  12 41.07  +24 43.8   1.870  2.753     7.7 / 272  18.8  106  .57

          12 14  12 40.51  +24 44.0   1.877  2.757     7.5 / 269  18.8  119  .45

          13 14  12 39.95  +24 43.9   1.885  2.760     7.4 / 267  18.8  131  .34

          14 14  12 39.41  +24 43.6   1.893  2.763     7.2 / 265  18.8  142  .24

          15 14  12 38.88  +24 42.9   1.901  2.766     7.1 / 262  18.8  151  .16

          16 14  12 38.37  +24 42.0   1.909  2.769     6.9 / 260  18.8  157  .09

          17 14  12 37.87  +24 40.8   1.918  2.772     6.8 / 257  18.8  156  .04

          18 14  12 37.38  +24 39.3   1.927  2.776     6.6 / 255  18.9  149  .01

          19 14  12 36.91  +24 37.5   1.936  2.779     6.5 / 252  18.9  140  .00

          20 14  12 36.46  +24 35.5   1.945  2.782     6.4 / 249  18.9  130  .01

NAKANO

         **** Don't distribute anyone except personal use only ****

                (C) Copyright 2004 OAA/ComputingSection

write mail from CFAD0::NAKANO on 2004-03-22 02:43:02(JST).

